Starlink 5708

operational
NORAD ID: 55470 Int'l Des: 2023-015 Owner: SPXS Country: US Constellation: starlink
LEOCIRCULAR

About Starlink 5708

Description loading...

Live Position

Loading 3D Globe...

Upcoming Passes

Altitude History

Altitude vs Time

uPlot chart will show altitude changes over time

Two-Line Element Set

1 55470U 23015X 25305.03524863 -.00000381 00000-0 -13152-4 0 9998
2 55470 43.0047 304.8377 0001130 270.1046 89.9667 15.02532332151400
Epoch: Nov 1, 2025 • Age: 21 hours

Current Status

Altitude 567.7 km
Velocity 7.58 km/s
Sub-Earth Point -33.14°S, 105.62°W
Launch Date Feb 2, 2023
Age 2.7 years
Type internet

Technical Details

Classification Payload
Mass 305.00 kg
Dry Mass 290.00 kg
Total Mass 305.00 kg
Length 0.20 m
Diameter 2.80 m
Span 9.00 m
Shape Box + pan
Manufacturer SPXS
Bus Type Starlink
Phase Status In Orbit
Owner/State SPXS/US

Large Constellations

Loading constellations...